19:55
Airports
History
Links
Donate
Help keep this website running!
PayPal
Bitcoin
This page is community maintained. The information is intended for PC simulator navigation or reference.
Always use approved charts for navigation.
Y40
Akron Municipal
Akron Municipal (Y40)
Akron, Iowa, United States (51001)
(U)
Lat/Lng:42° 48' 20.98" N / 96° 33' 47.12" W
42.805827 / -96.563088
Elevation:1143'ft / 348mMSL
ID / ICAO:Y40
Runways:1
Longest:16-34
Asphalt 628m / 2,059ft
Nearby Weather19:35 GMT 2017-12-12
Nearby weather at KLRJ, Le Mars Muni located 18.8 nautical miles from Y40
Altimeter: 30.09
Visibility: 10.0 statute miles
Wind: 8 knots (from 220°)
Temp: 3°c / 37°f
Humidity: 59.9%

METAR: KLRJ 121935Z AUTO 22008KT 190V250 10SM CLR 03/M04 A3009 RMK AO2

(Powered by phpweather)
Nearby VORs <50NM
Nearby NDBs
Runway 16 / 34
Dimensions:627.6 x 7.3m 2059' x 24'ft
Surface:Asphalt
Edge Lights:Medium intensity
Runway 16 [A]Runway 34 [B]
Heading:165°TH 345°TH
Lat:
Lng:
42° 48' 30.82"N
96° 33' 50.46"W
42° 48' 11.14"N
96° 33' 43.77"W
User Notes and Comments
42° 48' 20.98" N / 96° 33' 47.12" W
Distance To
Airport ID:
Nearby Airports
(U) Hawarden Muni 16.4 NM
2Y2 NNE 12°
(U) Graham Field 18.8 NM
7K7 SSE 167°
(U) Le Mars Muni 18.8 NM
KLRJ ( WX ) E 95°
(U) Harold Davidson Field 19.0 NM
KVMR W 261°
(U) Martin Field 24.7 NM
7K8 S 169°
(U) Orange City Muni 28.3 NM
KORC ( WX ) ENE 63°
(R) Lawton 28.9 NM
IA84 SE 140°
VFR Chart
Flight Planning at SkyVector.com